Regional Weather Roundup
Issued by NWS

Home | Current Version | Previous Version | Graphics & Text | Print | Product List | Glossary On
Versions: 1 2 3 4 5 6 7 8 9 10 11 12 13 14 15 16 17 18 19 20 21 22 23 24 25 26 27 28 29 30 31 32 33 34 35 36 37 38 39 40 41 42 43 44 45 46 47 48 49 50
481
ASUS43 KFSD 240702
RWRSD

WEATHER ROUNDUP FOR SOUTH DAKOTA
NATIONAL WEATHER SERVICE SIOUX FALLS SD
100 AM CST FRI NOV 24 2017

NOTE: "FAIR" INDICATES FEW OR NO CLOUDS BELOW 12,000 FEET WITH NO
SIGNIFICANT WEATHER AND/OR OBSTRUCTIONS TO VISIBILITY.


SDZ001>005-009-010-012>017-240800-
NORTHWEST AND NORTH CENTRAL SOUTH DAKOTA

CITY           SKY/WX    TMP DP  RH WIND       PRES   REMARKS
FAITH            N/A     56  36  47 W17       29.51F
MOBRIDGE       CLEAR     44  34  67 NW5       29.43F
$$

SDZ012>016-024>037-041>051-057-063-072>074-240800-
SOUTHWEST AND SOUTH CENTRAL SOUTH DAKOTA

CITY           SKY/WX    TMP DP  RH WIND       PRES   REMARKS
RAPID CTY ARPT CLEAR     54  33  45 W8        29.59F
PIERRE         CLEAR     50  38  63 W12       29.49F
CUSTER         CLEAR     46  32  58 W13       29.72F
ELLSWORTH AFB  CLEAR     56  32  40 W5        29.58F
PHILIP         CLEAR     47  36  65 W9        29.55F
PINE RIDGE     CLEAR     47  37  68 SW5       29.67F
SPEARFISH      FAIR      61  32  33 SW16      29.61F
WINNER         FAIR      51  38  60 SW10      29.56F
$$

SDZ004>011-016>023-039-040-240800-
NORTHEAST SOUTH DAKOTA

CITY           SKY/WX    TMP DP  RH WIND       PRES   REMARKS
ABERDEEN       CLEAR     33  32  96 S12       29.44F WCI  24
WATERTOWN      CLEAR     39  35  86 S8        29.48F
BROOKINGS      CLEAR     45  38  76 S10       29.52F
SISSETON         N/A     54  40  59 SW17      29.40F
$$

SDZ017-020-022-023-036>040-048>070-240800-
SOUTHEAST SOUTH DAKOTA

CITY           SKY/WX    TMP DP  RH WIND       PRES   REMARKS
SIOUX FALLS    CLEAR     50  41  71 SW9       29.54F
HURON          CLEAR     47  38  71 S7        29.48F
CHAMBERLAIN    CLEAR     47  39  76 SW9       29.53F
MITCHELL       CLEAR     52  40  63 S10       29.52F
YANKTON        CLEAR     55  42  61 S8        29.56F
$$

ABBREVIATIONS USED IN REMARKS
   TC - TEMPERATURE IN CELSIUS
  WCI - WIND CHILL INDEX
   HX - HEAT INDEX
  VSB - VISIBILITY





USA.gov is the U.S. government's official web portal to all federal, state and local government web resources and services.